Flag for Greenland Weather past 2 weeks in Qaanaaq, Greenland

Now
45 °F

Sunny.


Feels Like: 35 °F
Forecast: 36 / 39 °F
Wind: 31 mph from Southeast

Location: Thule A. B.

Current Time: Aug 5, 2015 at 5:00:39 AM

Latest Report: Aug 5, 2015 at 3:58 AM


Visibility: N/A

Pressure: 29.91 "Hg

Humidity: 53%

Dew point: 28 °F

Location of QaanaaqLocation

Historic Weather in Qaanaaq — Graph

°F

Qaanaaq temperature yesterday

Maximum temperature yesterday: 52 °F (at 7:58 PM)
Minimum temperature yesterday: 34 °F (at 6:58 AM)
Average temperature yesterday: 40 °F

Past Weeks' High & Low Weather Summary

 TemperatureHumidityPressure
High59 °F (Jul 21, 2:58 PM)93% (Jul 24, 2:02 AM)30.29 "Hg (Jul 24, 2:02 AM)
Low34 °F (Aug 4, 6:58 AM)37% (Aug 4, 10:58 PM)29.81 "Hg (Jul 21, 2:58 PM)
Average43 °F78%30.04 "Hg
* Reported Jul 21 3:58 AM — Aug 5 3:58 AM, Qaanaaq, Weather by CustomWeather, © 2015

Note: Actual official high and low records may vary slightly from our data, if they occured in-between our weather recording intervals... More about our weather records

Advertising

Qaanaaq weather history for previous 24 hours

 ConditionsComfort  
Time TempWeatherWind HumidityBarometerVisibility
3:58 AM
Wed, Aug 5
45 °FSunny.31 mph53%29.91 "HgN/A
2:58 AM48 °FSunny.20 mph40%29.95 "HgN/A
1:58 AM48 °FSunny.18 mph40%29.96 "HgN/A
12:58 AM48 °FSunny.18 mph43%29.97 "HgN/A
11:58 PM
Tue, Aug 4
48 °FSunny.31 mph43%29.96 "HgN/A
10:58 PM50 °FSunny.16 mph37%30.00 "HgN/A
9:58 PM50 °FSunny.17 mph40%30.01 "HgN/A
8:58 PM52 °FOvercast.15 mph38%30.03 "HgN/A
7:58 PM52 °FPartly sunny.18 mph38%30.05 "HgN/A
6:58 PM48 °FSunny.14 mph62%30.06 "HgN/A
5:58 PM48 °FSunny.10 mph62%30.07 "HgN/A
4:58 PM41 °FSunny.9 mph81%30.09 "HgN/A
3:58 PM48 °FSunny.10 mph58%30.08 "HgN/A
2:58 PM45 °FSunny.8 mph71%30.10 "HgN/A
1:58 PM41 °FSunny.5 mph76%30.10 "HgN/A
12:58 PM41 °FSunny.8 mph81%30.12 "HgN/A
11:58 AM39 °FPassing clouds.3 mph81%30.13 "HgN/A
10:58 AM36 °FDense fog.3 mph87%30.14 "Hg1 mi
10:01 AM37 °FDense fog.7 mph81%30.20 "Hg1 mi
9:58 AM37 °FLow clouds.6 mph81%30.15 "Hg1 mi
9:03 AM37 °FLow clouds.5 mph81%30.20 "Hg2 mi
8:58 AM37 °FLow clouds.5 mph87%30.15 "Hg3 mi
8:03 AM36 °FLow clouds.3 mph87%30.21 "Hg3 mi
7:58 AM36 °FDense fog.No wind87%30.16 "Hg1 mi
7:04 AM34 °FFog.No wind93%30.21 "Hg1 mi
6:58 AM34 °FFog.No wind87%30.17 "Hg1 mi
5:58 AM35 °FChilly.No wind87%30.17 "HgN/A
Weather by CustomWeather, © 2015

See weather overviewHow to use our weather pages